星链-35930(STARLINK-35930)

导读

STARLINK-35930是SpaceX星链星座卫星中的一颗,由美国SpaceX公司开发制造,于2025年11月22日在美国发射,其主要服务在于为全球用户提供大容量、低延迟的卫星宽带互联网服务,填补地面通信无法覆盖区域的市场空白。

基本信息
目录编号:
66599
目录名称:
STARLINK-35930
国际标识:
2025-270M
轨道中心:
EARTH
卫星名称:
星链-35930
卫星全名:
星链-35930(STARLINK-35930)
卫星状态:
在轨 (已飞行286 天)
发射日期:
2025-11-22 UTC
国别 :
美国 (US)
星等 :
--
轨道信息
数据来源 国际轨道数据 AOE轨道数据
星历时间 2026-09-04T09:06:17+0800
20小时前
查看轨道信息
2026-09-03T21:00:00+0800
1天前
查看轨道信息
半长轴 6861.173km 6861.247km
偏心率 0.0001264 0.0001308
轨道倾角 43.000° 43.001°
近地点辐角 266.406° 256.020°
升交点赤经 128.876° 131.727°
平近点角 93.665° 207.154°
近地点 482.168km 482.212km
远地点 483.904km 484.008km
周期 94.266分钟 94.268分钟
每日圈数 15.275845 15.275598
详细信息
固有亮度:
5
最大亮度:
2.5
卫星平台:
Starlink V1.0
覆盖范围:
全球
运营商:
太空探索技术公司
运营商所在国:
美国
制造商(研发单位):
太空探索技术公司
制造商所在国:
美国
使用方式:
暂无
卫星简介
Starlink 计划是 SpaceX 推出的全球卫星互联网项目,通过发射低轨道卫星,为全球尤其是偏远地区提供高速、低延迟的互联网服务。自 2019 年起,Starlink 已部署数千颗卫星,旨在缩小全球数字鸿沟,推动互联网普及。该项目还为军事、航空等行业提供通信支持,带来广泛经济效益。
2D轨道图
3D轨道图
轨道高度分析图
轨道倾角分析图
轨道综合分析图
查看轨道综合分析图
交会数据列表
事件ID 空间交会对象 最接近时刻(TCA) 交会距离 交会风险概率(CRP) 交会风险指数(CRI) 操作
CDM_260906-152406-659906-995121
2026-09-06T
15:24:00+0000
0.362 km
远距离
2.642654E-4 高风险 0.83